timestamp,wind_dir_avg,wind_spd_avg,wind_spd_max_dir,wind_spd_gust,battery_voltage,lat,long
2022-04-07 00:04:01+00:00,327.0,8.27,335.0,10.49,12.49,47.59359,-54.27349
2022-04-07 00:14:01+00:00,329.0,6.85,327.0,7.69,12.41,47.59359,-54.27349
2022-04-07 00:24:01+00:00,332.0,7.52,336.0,9.4,12.41,47.59359,-54.27349
2022-04-07 00:34:01+00:00,336.0,8.41,336.0,9.88,12.41,47.59359,-54.27349
2022-04-07 00:44:01+00:00,330.0,7.49,329.0,8.56,12.41,47.59359,-54.27349
2022-04-07 00:54:01+00:00,322.0,7.64,321.0,8.84,12.41,47.59359,-54.27349
2022-04-07 01:04:01+00:00,330.0,8.26,329.0,9.0,12.41,47.59359,-54.27349
2022-04-07 01:14:01+00:00,338.0,8.3,338.0,9.36,12.41,47.59359,-54.27349
2022-04-07 01:24:01+00:00,338.0,6.69,334.0,7.6,12.41,47.59359,-54.27349
2022-04-07 01:34:01+00:00,334.0,7.96,340.0,9.36,12.41,47.59359,-54.27349
2022-04-07 01:44:01+00:00,343.0,8.55,349.0,9.96,12.41,47.59359,-54.27349
2022-04-07 01:54:01+00:00,342.0,8.59,341.0,10.84,12.41,47.59359,-54.27349
2022-04-07 02:04:01+00:00,330.0,7.83,324.0,9.38,12.41,47.59359,-54.27349
2022-04-07 02:14:00+00:00,332.0,7.8,330.0,8.66,12.33,47.59359,-54.27349
2022-04-07 02:24:00+00:00,328.0,7.32,327.0,8.33,12.33,47.59359,-54.27349
2022-04-07 02:34:00+00:00,337.0,8.12,342.0,10.75,12.33,47.59359,-54.27349
2022-04-07 02:44:00+00:00,340.0,6.24,348.0,7.36,12.33,47.59359,-54.27349
2022-04-07 02:54:00+00:00,338.0,6.32,336.0,7.32,12.33,47.59359,-54.27349
2022-04-07 03:04:00+00:00,342.0,6.4,340.0,7.56,12.33,47.59359,-54.27349
2022-04-07 03:14:01+00:00,334.0,7.4,331.0,8.46,12.33,47.59359,-54.27349
2022-04-07 03:24:01+00:00,344.0,7.51,344.0,8.44,12.33,47.59359,-54.27349
2022-04-07 03:34:01+00:00,342.0,7.39,343.0,8.28,12.33,47.59359,-54.27349
2022-04-07 03:44:01+00:00,342.0,7.0,342.0,7.89,12.33,47.59359,-54.27349
2022-04-07 03:54:01+00:00,343.0,5.93,340.0,7.18,12.33,47.59359,-54.27349
2022-04-07 04:04:01+00:00,344.0,5.97,346.0,7.96,12.33,47.59359,-54.27349
2022-04-07 04:14:01+00:00,339.0,6.34,340.0,7.9,12.25,47.59359,-54.27349
2022-04-07 04:24:01+00:00,335.0,5.9,332.0,6.92,12.25,47.59359,-54.27349
2022-04-07 04:34:01+00:00,332.0,5.76,329.0,6.93,12.25,47.59359,-54.27349
2022-04-07 04:44:01+00:00,347.0,5.13,346.0,5.94,12.25,47.59359,-54.27349
2022-04-07 04:54:01+00:00,342.0,5.83,352.0,7.46,12.25,47.59359,-54.27349
2022-04-07 05:04:01+00:00,350.0,7.41,348.0,8.16,12.25,47.59359,-54.27349
2022-04-07 05:14:01+00:00,346.0,6.74,336.0,8.16,12.33,47.59359,-54.27349
2022-04-07 05:24:01+00:00,354.0,7.04,348.0,8.17,12.33,47.59359,-54.27349
2022-04-07 05:34:01+00:00,348.0,4.91,351.0,5.61,12.33,47.59359,-54.27349
2022-04-07 05:44:01+00:00,348.0,6.94,351.0,7.98,12.33,47.59359,-54.27349
2022-04-07 05:54:01+00:00,346.0,6.71,350.0,7.41,12.33,47.59359,-54.27349
2022-04-07 06:04:01+00:00,343.0,7.2,336.0,8.28,12.33,47.59359,-54.27349
2022-04-07 06:14:00+00:00,347.0,6.97,351.0,7.9,12.17,47.59359,-54.27349
2022-04-07 06:24:00+00:00,339.0,6.27,335.0,7.07,12.17,47.59359,-54.27349
2022-04-07 06:34:00+00:00,349.0,7.26,351.0,8.33,12.17,47.59359,-54.27349
2022-04-07 06:44:00+00:00,347.0,6.44,344.0,6.94,12.17,47.59359,-54.27349
2022-04-07 06:54:00+00:00,347.0,7.47,347.0,8.68,12.17,47.59359,-54.27349
2022-04-07 07:04:00+00:00,336.0,7.6,337.0,8.44,12.17,47.59359,-54.27349
2022-04-07 07:14:01+00:00,328.0,8.11,318.0,10.66,12.17,47.59359,-54.27349
2022-04-07 07:24:01+00:00,346.0,6.73,339.0,7.88,12.17,47.59359,-54.27349
2022-04-07 07:34:01+00:00,338.0,6.7,331.0,7.89,12.17,47.59359,-54.27349
2022-04-07 07:44:01+00:00,340.0,6.47,343.0,8.42,12.17,47.59359,-54.27349
2022-04-07 07:54:01+00:00,334.0,6.01,333.0,7.21,12.17,47.59359,-54.27349
2022-04-07 08:04:01+00:00,346.0,5.09,328.0,6.11,12.17,47.59359,-54.27349
2022-04-07 08:14:01+00:00,354.0,7.45,356.0,8.39,12.09,47.59359,-54.27349
2022-04-07 08:24:01+00:00,348.0,5.84,350.0,6.32,12.09,47.59359,-54.27349
2022-04-07 08:34:01+00:00,348.0,5.68,351.0,6.67,12.09,47.59359,-54.27349
2022-04-07 08:44:01+00:00,347.0,6.33,337.0,7.18,12.09,47.59359,-54.27349
2022-04-07 08:54:01+00:00,352.0,6.49,355.0,7.08,12.09,47.59359,-54.27349
2022-04-07 09:04:01+00:00,352.0,6.4,355.0,7.16,12.09,47.59359,-54.27349
2022-04-07 09:14:00+00:00,353.0,6.71,355.0,7.87,12.09,47.59359,-54.27349
2022-04-07 09:24:00+00:00,358.0,7.43,356.0,8.25,12.09,47.59359,-54.27349
2022-04-07 09:34:00+00:00,356.0,8.47,4.0,9.73,12.09,47.59359,-54.27349
2022-04-07 09:44:00+00:00,354.0,7.85,351.0,8.54,12.09,47.59359,-54.27349
2022-04-07 09:54:00+00:00,353.0,7.38,353.0,8.17,12.09,47.59359,-54.27349
2022-04-07 10:04:00+00:00,0.0,8.43,1.0,9.54,12.09,47.59359,-54.27349
2022-04-07 10:14:00+00:00,356.0,9.49,354.0,10.18,12.17,47.59359,-54.27349
2022-04-07 10:24:00+00:00,357.0,8.25,355.0,9.02,12.17,47.59359,-54.27349
2022-04-07 10:34:00+00:00,0.0,8.74,356.0,9.63,12.17,47.59359,-54.27349
2022-04-07 10:44:00+00:00,0.0,9.62,354.0,10.65,12.17,47.59359,-54.27349
2022-04-07 10:54:00+00:00,2.0,9.24,2.0,10.48,12.17,47.59359,-54.27349
2022-04-07 11:04:00+00:00,0.0,8.39,358.0,9.56,12.17,47.59359,-54.27349
2022-04-07 11:14:00+00:00,1.0,8.78,0.0,9.85,12.81,47.59359,-54.27349
2022-04-07 11:24:00+00:00,3.0,6.68,0.0,8.14,12.81,47.59359,-54.27349
2022-04-07 11:34:00+00:00,5.0,7.77,357.0,9.54,12.81,47.59359,-54.27349
2022-04-07 11:44:00+00:00,2.0,8.23,4.0,9.34,12.81,47.59359,-54.27349
2022-04-07 11:54:00+00:00,5.0,7.32,0.0,9.09,12.81,47.59359,-54.27349
2022-04-07 12:04:00+00:00,6.0,7.46,3.0,8.75,12.81,47.59359,-54.27349
2022-04-07 12:14:01+00:00,11.0,6.93,9.0,7.81,13.6,47.59359,-54.27349
2022-04-07 12:24:01+00:00,13.0,7.3,13.0,8.01,13.6,47.59359,-54.27349
2022-04-07 12:34:01+00:00,12.0,5.46,13.0,6.38,13.6,47.59359,-54.27349
2022-04-07 12:44:01+00:00,357.0,6.2,22.0,7.26,13.6,47.59359,-54.27349
2022-04-07 12:54:01+00:00,15.0,5.59,18.0,6.09,13.6,47.59359,-54.27349
2022-04-07 13:04:01+00:00,20.0,4.45,17.0,5.25,13.6,47.59359,-54.27349
2022-04-07 13:14:00+00:00,25.0,6.03,23.0,6.8,13.68,47.59359,-54.27349
2022-04-07 13:24:00+00:00,19.0,5.85,11.0,7.81,13.68,47.59359,-54.27349
2022-04-07 13:34:00+00:00,11.0,6.07,12.0,7.16,13.68,47.59359,-54.27349
2022-04-07 13:44:00+00:00,353.0,6.46,353.0,7.17,13.68,47.59359,-54.27349
2022-04-07 13:54:00+00:00,355.0,8.11,358.0,8.72,13.68,47.59359,-54.27349
2022-04-07 14:04:00+00:00,1.0,7.42,359.0,8.21,13.68,47.59359,-54.27349
2022-04-07 14:14:01+00:00,1.0,8.15,2.0,9.03,13.68,47.59359,-54.27349
2022-04-07 14:24:01+00:00,9.0,5.91,17.0,7.13,13.68,47.59359,-54.27349
2022-04-07 14:34:01+00:00,20.0,9.0,21.0,9.9,13.68,47.59359,-54.27349
2022-04-07 14:44:01+00:00,21.0,6.9,23.0,7.57,13.68,47.59359,-54.27349
2022-04-07 14:54:01+00:00,26.0,6.52,29.0,7.45,13.68,47.59359,-54.27349
2022-04-07 15:04:01+00:00,25.0,5.42,23.0,6.6,13.68,47.59359,-54.27349
2022-04-07 15:14:00+00:00,30.0,4.19,31.0,5.02,14.24,47.59359,-54.27349
2022-04-07 15:24:00+00:00,35.0,5.32,35.0,6.17,14.24,47.59359,-54.27349
2022-04-07 15:34:00+00:00,19.0,8.5,19.0,10.13,14.24,47.59359,-54.27349
2022-04-07 15:44:00+00:00,31.0,9.94,31.0,10.58,14.24,47.59359,-54.27349
2022-04-07 15:54:00+00:00,27.0,9.07,19.0,10.46,14.24,47.59359,-54.27349
2022-04-07 16:04:00+00:00,35.0,8.91,35.0,10.04,14.24,47.59359,-54.27349
2022-04-07 16:14:01+00:00,49.0,6.45,42.0,7.94,13.68,47.59359,-54.27349
2022-04-07 16:24:01+00:00,41.0,7.34,39.0,7.99,13.68,47.59359,-54.27349
2022-04-07 16:34:01+00:00,35.0,8.4,40.0,9.45,13.68,47.59359,-54.27349
2022-04-07 16:44:01+00:00,34.0,8.3,35.0,8.97,13.68,47.59359,-54.27349
2022-04-07 16:54:01+00:00,39.0,8.54,39.0,9.44,13.68,47.59359,-54.27349
2022-04-07 17:04:01+00:00,38.0,8.83,35.0,10.06,13.68,47.59359,-54.27349
2022-04-07 17:14:00+00:00,38.0,9.53,36.0,10.49,14.0,47.59359,-54.27349
2022-04-07 17:24:00+00:00,40.0,9.11,44.0,10.16,14.0,47.59359,-54.27349
2022-04-07 17:34:00+00:00,38.0,7.87,45.0,9.02,14.0,47.59359,-54.27349
2022-04-07 17:44:00+00:00,35.0,7.69,42.0,8.65,14.0,47.59359,-54.27349
2022-04-07 17:54:00+00:00,36.0,8.47,33.0,9.32,14.0,47.59359,-54.27349
2022-04-07 18:04:00+00:00,26.0,7.27,30.0,8.04,14.0,47.59359,-54.27349
2022-04-07 18:14:01+00:00,32.0,8.5,35.0,9.16,13.68,47.59359,-54.27349
2022-04-07 18:24:01+00:00,35.0,10.12,36.0,10.91,13.68,47.59359,-54.27349
2022-04-07 18:34:01+00:00,37.0,8.79,35.0,9.52,13.68,47.59359,-54.27349
2022-04-07 18:44:01+00:00,28.0,7.36,29.0,8.11,13.68,47.59359,-54.27349
2022-04-07 18:54:01+00:00,34.0,9.24,32.0,10.71,13.68,47.59359,-54.27349
2022-04-07 19:04:01+00:00,34.0,9.32,33.0,10.08,13.68,47.59359,-54.27349
2022-04-07 19:14:01+00:00,32.0,7.73,36.0,8.75,13.76,47.59359,-54.27349
2022-04-07 19:24:01+00:00,19.0,9.15,18.0,11.37,13.76,47.59359,-54.27349
2022-04-07 19:34:01+00:00,18.0,9.95,24.0,11.42,13.76,47.59359,-54.27349
2022-04-07 19:44:01+00:00,24.0,9.35,29.0,10.63,13.76,47.59359,-54.27349
2022-04-07 19:54:01+00:00,21.0,9.64,20.0,11.02,13.76,47.59359,-54.27349
2022-04-07 20:04:01+00:00,19.0,11.77,21.0,14.2,13.76,47.59359,-54.27349
2022-04-07 20:14:01+00:00,11.0,9.99,15.0,12.86,13.68,47.59359,-54.27349
2022-04-07 20:24:01+00:00,16.0,9.78,14.0,11.42,13.68,47.59359,-54.27349
2022-04-07 20:34:01+00:00,11.0,8.65,12.0,10.13,13.68,47.59359,-54.27349
2022-04-07 20:44:01+00:00,7.0,8.65,8.0,10.22,13.68,47.59359,-54.27349
2022-04-07 20:54:01+00:00,11.0,8.98,11.0,10.68,13.68,47.59359,-54.27349
2022-04-07 21:04:01+00:00,24.0,9.96,21.0,11.3,13.68,47.59359,-54.27349
2022-04-07 21:14:01+00:00,37.0,10.38,35.0,11.46,13.68,47.59359,-54.27349
2022-04-07 21:24:01+00:00,38.0,11.04,41.0,12.96,13.68,47.59359,-54.27349
2022-04-07 21:34:01+00:00,31.0,11.19,32.0,12.31,13.68,47.59359,-54.27349
2022-04-07 21:44:01+00:00,29.0,9.74,32.0,11.6,13.68,47.59359,-54.27349
2022-04-07 21:54:01+00:00,25.0,8.39,27.0,9.66,13.68,47.59359,-54.27349
2022-04-07 22:04:01+00:00,27.0,9.58,31.0,11.07,13.68,47.59359,-54.27349
2022-04-07 22:14:01+00:00,14.0,7.69,14.0,8.51,12.97,47.59359,-54.27349
2022-04-07 22:24:01+00:00,26.0,10.41,28.0,12.17,12.97,47.59359,-54.27349
2022-04-07 22:34:01+00:00,17.0,10.25,17.0,12.25,12.97,47.59359,-54.27349
2022-04-07 22:44:01+00:00,22.0,9.83,32.0,11.76,12.97,47.59359,-54.27349
2022-04-07 22:54:01+00:00,22.0,9.26,37.0,10.74,12.97,47.59359,-54.27349
2022-04-07 23:04:01+00:00,25.0,8.22,22.0,9.88,12.97,47.59359,-54.27349
2022-04-07 23:14:01+00:00,28.0,9.32,29.0,10.25,12.49,47.59359,-54.27349
2022-04-07 23:24:01+00:00,18.0,8.5,15.0,9.31,12.49,47.59359,-54.27349
2022-04-07 23:34:01+00:00,17.0,7.43,18.0,9.14,12.49,47.59359,-54.27349
2022-04-07 23:44:01+00:00,11.0,7.53,14.0,8.72,12.49,47.59359,-54.27349
2022-04-07 23:54:01+00:00,11.0,5.99,2.0,7.67,12.49,47.59359,-54.27349
